Location: Cerroniocc
(13.7547°S, 72.0222°W)
Time: 19:58:13
(UTC+00:00)

Cosmos 1758 - Pass Details

Date: 05 July 2020
Orbit: 539 x 563 km, 82.5° (Epoch: 11 August)

Event Time Altitude Azimuth Distance (km) Brightness Sun altitude
Rises 23:32:26 0° 356° (N) 2,701 7.2 -14.2°
Reaches altitude 10° 23:34:35 10° 356° (N) 1,810 6.3 -14.7°
Maximum altitude 23:38:34 89° 84° (E) 551 3.2 -15.6°
Drops below altitude 10° 23:42:34 10° 175° (S) 1,816 5.7 -16.5°
Enters shadow 23:43:06 - 175° (S) 2,034 6.0 -16.6°
